GW7269 Weather Reports


time (UTC)temp
F
wind
direction
speed
knots
gust
knots
rain 1hr
in
rain 24hr
in
rain mn
in
humidity
%
barometer
mb
20260906231555 59 173 4.3 6.1 0.00 0.00 0.00 81 1017.4
20260906231017 59 168 3.5 8.7 0.00 0.00 0.00 81 1017.5
20260906230519 59 221 2.6 8.7 0.00 0.00 0.00 81 1017.4
20260906225515 59 180 3.5 7.8 0.00 0.00 0.00 82 1017.4
20260906225020 58 178 4.3 7.0 0.00 0.00 0.00 82 1017.4
20260906224535 58 190 3.5 7.8 0.00 0.00 0.00 82 1017.5
20260906224019 58 197 3.5 7.0 0.00 0.00 0.00 82 1017.6
20260906223517 59 181 3.5 7.8 0.00 0.00 0.00 81 1017.6
20260906222518 59 172 1.7 7.0 0.00 0.00 0.00 82 1017.5
20260906222018 59 145 2.6 7.0 0.00 0.00 0.00 81 1017.4
20260906221537 59 200 2.6 7.8 0.00 0.00 0.00 82 1017.6
20260906221018 59 178 3.5 8.7 0.00 0.00 0.00 82 1017.6
20260906220518 59 206 3.5 8.7 0.00 0.00 0.00 82 1017.7
20260906215519 59 186 3.5 7.0 0.00 0.00 0.00 82 1017.5
20260906215017 59 211 2.6 6.1 0.00 0.00 0.00 83 1017.6
20260906214534 58 249 1.7 7.0 0.00 0.00 0.00 84 1017.5
20260906214018 58 251 3.5 7.0 0.00 0.00 0.00 83 1017.6
20260906213519 58 223 2.6 6.1 0.00 0.00 0.00 84 1017.6
20260906213036 57 197 2.6 7.0 0.00 0.00 0.00 85 1017.6
20260906212515 57 211 3.5 7.0 0.00 0.00 0.00 85 1017.6
20260906212018 57 223 0.9 7.0 0.00 0.00 0.00 87 1017.6
20260906211542 56 202 4.3 7.0 0.00 0.00 0.00 86 1017.7
20260906211019 56 209 2.6 6.1 0.00 0.00 0.00 87 1017.3
20260906210520 56 215 1.7 7.0 0.00 0.00 0.00 88 1017.5
20260906210044 56 254 2.6 6.1 0.00 0.00 0.00 88 1017.6
20260906205517 56 248 1.7 4.3 0.00 0.00 0.00 88 1017.6
20260906205017 56 269 1.7 6.1 0.00 0.00 0.00 88 1017.7
20260906204538 56 223 3.5 7.0 0.00 0.00 0.00 87 1017.5
20260906204018 56 265 2.6 7.0 0.00 0.00 0.00 87 1017.6
20260906203518 57 257 3.5 6.1 0.00 0.00 0.00 86 1017.6
20260906202519 58 263 1.7 5.2 0.00 0.00 0.00 86 1017.6
20260906202018 57 201 1.7 5.2 0.00 0.00 0.00 85 1017.5
20260906201021 57 205 0.9 4.3 0.00 0.00 0.00 87 1017.5
20260906200520 57 222 0.9 5.2 0.00 0.00 0.00 87 1017.6
20260906200036 56 211 1.7 5.2 0.00 0.00 0.00 87 1017.7
20260906195515 57 188 2.6 5.2 0.00 0.00 0.00 86 1017.8
20260906195016 57 243 1.7 4.3 0.00 0.00 0.00 87 1017.8
20260906194545 57 178 1.7 4.3 0.00 0.00 0.00 86 1017.8
20260906193518 57 201 2.6 5.2 0.00 0.00 0.00 86 1017.9
20260906193038 57 161 2.6 5.2 0.00 0.00 0.00 85 1018.0
20260906192519 57 163 3.5 5.2 0.00 0.00 0.00 85 1018.0
20260906192019 57 164 1.7 7.0 0.00 0.00 0.00 87 1017.8
20260906191550 56 171 2.6 7.0 0.00 0.00 0.00 86 1017.9
20260906191020 56 159 1.7 4.3 0.00 0.00 0.00 87 1017.9
20260906190518 56 178 2.6 4.3 0.00 0.00 0.00 87 1018.0
20260906190039 56 213 0.9 3.5 0.00 0.00 0.00 88 1018.0
20260906185517 56 178 1.7 6.1 0.00 0.00 0.00 88 1018.2
20260906185019 56 152 3.5 6.1 0.00 0.00 0.00 88 1018.1
20260906183517 56 109 2.6 5.2 0.00 0.00 0.00 89 1018.0
20260906183046 56 133 1.7 6.1 0.00 0.00 0.00 90 1018.0
20260906182520 55 135 1.7 6.1 0.00 0.00 0.00 90 1018.1
20260906182020 55 146 2.6 6.1 0.00 0.00 0.00 89 1018.1
20260906181543 55 117 1.7 6.1 0.00 0.00 0.00 90 1018.1
20260906181021 55 125 2.6 6.1 0.00 0.00 0.00 89 1018.1
20260906180519 55 142 2.6 4.3 0.00 0.00 0.00 89 1018.2
20260906180053 56 142 1.7 3.5 0.00 0.00 0.00 90 1018.3
20260906175517 55 93 0.0 3.5 0.00 0.00 0.00 92 1018.4
20260906175017 55 93 0.9 3.5 0.00 0.00 0.00 91 1018.4
20260906174546 55 101 1.7 5.2 0.00 0.00 0.00 90 1018.4
20260906174017 55 92 2.6 5.2 0.00 0.00 0.00 91 1018.4
20260906173517 54 105 1.7 3.5 0.00 0.00 0.00 92 1018.4
20260906173045 54 86 1.7 3.5 0.00 0.00 0.00 91 1018.3
20260906172019 54 140 0.0 2.6 0.00 0.00 0.00 92 1018.4
20260906171543 54 188 0.9 2.6 0.00 0.00 0.00 91 1018.4
20260906171018 54 216 0.0 1.7 0.00 0.00 0.00 93 1018.2
20260906170519 54 205 0.0 0.0 0.00 0.00 0.00 93 1018.2
20260906170043 54 205 0.0 2.6 0.00 0.00 0.00 93 1018.3
20260906165520 53 179 0.9 2.6 0.00 0.00 0.00 93 1018.2
20260906165017 53 184 0.9 2.6 0.00 0.00 0.00 93 1018.2
20260906164549 53 165 0.0 2.6 0.00 0.00 0.00 94 1018.3
20260906164018 53 147 0.9 3.5 0.00 0.00 0.00 93 1018.3
20260906163103 53 186 1.7 3.5 0.00 0.00 0.00 94 1018.4
20260906162018 53 196 1.7 5.2 0.00 0.00 0.00 94 1018.3
20260906161542 53 183 1.7 5.2 0.00 0.00 0.00 94 1018.3
20260906161020 53 198 1.7 4.3 0.00 0.00 0.00 94 1018.2
20260906160517 53 189 1.7 4.3 0.00 0.00 0.00 95 1018.1
20260906160046 53 175 1.7 5.2 0.00 0.00 0.00 95 1018.1
20260906155516 53 167 2.6 6.1 0.00 0.00 0.00 94 1018.1
20260906154543 53 200 2.6 6.1 0.00 0.00 0.00 95 1018.1
20260906153522 53 175 3.5 8.7 0.00 0.00 0.00 95 1018.1
20260906153047 53 161 1.7 7.0 0.00 0.00 0.00 95 1018.1
20260906152523 53 144 3.5 7.8 0.00 0.00 0.00 95 1017.9
20260906152017 53 130 2.6 6.1 0.00 0.00 0.00 95 1017.9
20260906151539 53 198 2.6 5.2 0.00 0.00 0.00 95 1017.9
20260906151017 53 180 1.7 3.5 0.00 0.00 0.00 95 1017.9
20260906150518 52 125 0.0 3.5 0.00 0.00 0.00 95 1018.0
20260906150046 52 174 0.9 4.3 0.00 0.00 0.00 95 1017.9
20260906145519 52 169 1.7 3.5 0.00 0.00 0.00 95 1017.9
20260906145018 52 173 0.9 3.5 0.00 0.00 0.00 95 1017.9
20260906144545 52 165 0.9 4.3 0.00 0.00 0.00 95 1017.9
20260906143047 52 197 1.7 8.7 0.00 0.00 0.00 95 1017.8
20260906142517 52 150 3.5 9.6 0.00 0.00 0.00 95 1017.7
20260906142021 52 167 3.5 8.7 0.00 0.00 0.00 95 1017.6
20260906141542 52 118 6.1 10.4 0.00 0.00 0.00 95 1017.6
20260906141023 52 147 5.2 10.4 0.00 0.00 0.00 95 1017.7
20260906140524 52 123 4.3 7.8 0.00 0.00 0.00 95 1017.8
20260906140056 52 107 3.5 8.7 0.00 0.00 0.00 95 1017.7
20260906135518 52 148 3.5 7.0 0.00 0.00 0.00 95 1017.6
20260906135017 52 115 2.6 7.0 0.00 0.00 0.00 95 1017.7
20260906134543 52 123 2.6 8.7 0.00 0.00 0.00 95 1017.8
20260906134019 52 163 4.3 7.8 0.00 0.00 0.00 95 1017.7
20260906133043 52 93 4.3 11.3 0.00 0.00 0.00 95 1017.6
20260906132518 52 101 2.6 12.2 0.00 0.00 0.00 94 1017.6
20260906132020 52 98 5.2 12.2 0.00 0.00 0.00 94 1017.5
20260906131552 52 84 7.0 10.4 0.00 0.00 0.00 95 1017.7
20260906131020 52 111 4.3 10.4 0.00 0.00 0.00 95 1017.7
20260906130518 52 113 3.5 9.6 0.00 0.00 0.00 95 1017.7
20260906130100 52 123 3.5 9.6 0.00 0.00 0.00 95 1017.6
20260906125520 52 114 6.1 9.6 0.00 0.00 0.00 95 1017.7
20260906125019 52 80 3.5 8.7 0.00 0.00 0.00 95 1017.7
20260906124547 52 92 5.2 8.7 0.00 0.00 0.00 95 1017.7
20260906124017 52 70 5.2 8.7 0.00 0.00 0.00 95 1017.7
20260906123518 52 63 3.5 11.3 0.00 0.00 0.00 95 1017.7
20260906123048 52 133 5.2 11.3 0.00 0.00 0.00 95 1017.7
20260906122019 51 113 5.2 11.3 0.00 0.00 0.00 95 1017.6
20260906121542 52 99 6.1 10.4 0.00 0.00 0.00 95 1017.5
20260906120518 51 136 4.3 9.6 0.00 0.00 0.00 95 1017.3
20260906120049 52 107 6.1 11.3 0.00 0.00 0.00 95 1017.2
20260906115520 51 101 6.1 12.2 0.00 0.00 0.00 95 1017.3
20260906115019 51 88 6.1 12.2 0.00 0.00 0.00 95 1017.2
20260906114543 51 82 8.7 12.2 0.00 0.00 0.00 95 1017.2
20260906113052 51 86 7.0 13.0 0.00 0.00 0.00 95 1017.2
20260906112019 52 113 6.1 10.4 0.00 0.00 0.00 95 1017.3
20260906111541 52 115 6.1 11.3 0.00 0.00 0.00 95 1017.3
20260906111019 52 153 7.0 11.3 0.00 0.00 0.00 95 1017.1
20260906110517 52 143 4.3 10.4 0.00 0.00 0.00 95 1017.2
20260906110045 52 76 5.2 10.4 0.00 0.00 0.00 95 1017.2
20260906105516 52 117 4.3 12.2 0.00 0.00 0.00 95 1017.2
20260906104545 52 123 6.1 13.0 0.00 0.00 0.00 95 1017.0
20260906104018 52 101 7.0 11.3 0.00 0.00 0.00 95 1017.0
20260906103044 52 88 6.1 12.2 0.00 0.00 0.00 95 1017.1
20260906102520 52 126 7.8 13.0 0.00 0.00 0.00 95 1017.0
20260906101556 52 165 6.1 11.3 0.00 0.00 0.00 95 1017.1
20260906101019 52 143 4.3 11.3 0.00 0.00 0.00 95 1017.2
20260906100523 52 140 5.2 10.4 0.00 0.00 0.00 94 1017.1
20260906100106 52 141 5.2 10.4 0.00 0.00 0.00 94 1017.0
20260906095018 52 143 6.1 12.2 0.00 0.00 0.00 94 1017.0
20260906094545 53 128 8.7 12.2 0.00 0.00 0.00 94 1017.0
20260906093057 53 176 7.0 12.2 0.00 0.00 0.00 94 1016.7
20260906092523 53 160 7.0 13.0 0.00 0.00 0.00 94 1016.5
20260906092019 53 137 7.8 13.0 0.00 0.00 0.00 94 1016.6
20260906091545 53 132 7.0 13.9 0.00 0.00 0.00 93 1016.5
20260906090101 54 137 5.2 9.6 0.00 0.00 0.00 93 1016.6
20260906085020 55 173 4.3 7.8 0.00 0.00 0.00 92 1016.7
20260906084556 55 136 4.3 8.7 0.00 0.00 0.00 91 1016.6
20260906084019 55 144 5.2 9.6 0.00 0.00 0.00 91 1016.6
20260906083519 55 146 5.2 7.0 0.00 0.00 0.00 91 1016.5
20260906083049 55 115 3.5 7.0 0.00 0.00 0.00 91 1016.6
20260906082019 55 125 3.5 7.0 0.00 0.00 0.00 90 1016.5
20260906081555 55 108 4.3 6.1 0.00 0.00 0.00 90 1016.5
20260906081018 55 100 3.5 7.0 0.00 0.00 0.00 89 1016.5
20260906080058 55 107 4.3 6.1 0.00 0.00 0.00 89 1016.5
20260906075520 55 99 3.5 6.1 0.00 0.00 0.00 89 1016.3
20260906075019 55 112 3.5 6.1 0.00 0.00 0.00 89 1016.3
20260906074559 55 117 2.6 7.8 0.00 0.00 0.00 89 1016.3
20260906074019 55 126 3.5 7.8 0.00 0.00 0.00 90 1016.3
20260906073520 55 125 3.5 7.0 0.00 0.00 0.00 90 1016.2
20260906073103 55 125 3.5 7.0 0.00 0.00 0.00 90 1016.3
20260906071555 56 119 4.3 7.0 0.00 0.00 0.00 90 1016.2
20260906070522 56 121 3.5 6.1 0.00 0.00 0.00 91 1016.3
20260906064556 56 145 4.3 6.1 0.00 0.00 0.00 88 1016.1
20260906064019 56 143 3.5 7.0 0.00 0.00 0.00 88 1016.2
20260906063046 57 132 3.5 6.1 0.00 0.00 0.00 86 1016.3
20260906061552 57 147 2.6 5.2 0.00 0.00 0.00 85 1016.3
20260906060521 57 152 2.6 5.2 0.00 0.00 0.00 85 1016.2
20260906060059 57 142 2.6 4.3 0.00 0.00 0.00 85 1016.1
20260906055519 57 132 2.6 3.5 0.00 0.00 0.00 85 1016.1
20260906055016 57 128 2.6 3.5 0.00 0.00 0.00 85 1016.1
20260906054602 57 129 2.6 3.5 0.00 0.00 0.00 85 1016.1
20260906053059 57 104 2.6 3.5 0.00 0.00 0.00 86 1016.2
20260906051555 58 119 2.6 3.5 0.00 0.00 0.00 84 1015.7
20260906050126 58 140 2.6 3.5 0.00 0.00 0.00 85 1015.9
20260906045023 60 125 2.6 3.5 0.00 0.00 0.00 78 1015.7
20260906044604 61 120 0.0 0.0 0.00 0.00 0.00 74 1015.7
20260906043118 63 234 0.0 0.0 0.00 0.00 0.00 60 1015.6
20260906041604 62 248 0.0 0.0 0.00 0.00 0.00 63 1015.8
20260906040523 62 207 0.0 0.0 0.00 0.00 0.00 62 1016.0
20260906034620 62 207 0.0 1.7 0.00 0.00 0.00 62 1015.8
20260906033106 61 207 0.9 1.7 0.00 0.00 0.00 66 1015.8
20260906031601 61 207 2.6 4.3 0.00 0.00 0.00 69 1016.0
20260906030120 61 195 1.7 5.2 0.00 0.00 0.00 71 1016.1
20260906025523 61 163 2.6 5.2 0.00 0.00 0.00 71 1015.9
20260906025018 62 170 2.6 5.2 0.00 0.00 0.00 72 1015.9
20260906024617 62 167 0.0 2.6 0.00 0.00 0.00 72 1015.9
20260906023520 63 193 1.7 3.5 0.00 0.00 0.00 70 1015.9
20260906023059 63 194 1.7 3.5 0.00 0.00 0.00 68 1016.2
20260906021610 64 209 1.7 3.5 0.00 0.00 0.00 67 1016.0
20260906020126 65 217 1.7 4.3 0.00 0.00 0.00 65 1016.0
20260906014608 67 235 0.0 2.6 0.00 0.00 0.00 62 1016.3
20260906014018 67 197 0.9 2.6 0.00 0.00 0.00 62 1016.1
20260906013519 67 227 0.0 2.6 0.00 0.00 0.00 61 1016.0
20260906013118 67 257 0.0 3.5 0.00 0.00 0.00 62 1016.3
20260906012523 66 215 0.0 5.2 0.00 0.00 0.00 64 1016.1
20260906012026 66 239 1.7 4.3 0.00 0.00 0.00 64 1016.1
20260906011623 66 223 1.7 3.5 0.00 0.00 0.00 64 1015.7
20260906010111 66 209 0.9 3.5 0.00 0.00 0.00 64 1016.1
20260906004601 65 207 0.9 7.0 0.00 0.00 0.00 66 1016.0
20260906003108 64 176 2.6 6.1 0.00 0.00 0.00 64 1016.1
20260906002020 64 278 2.6 6.1 0.00 0.00 0.00 67 1016.1
20260906001622 64 229 3.5 7.0 0.00 0.00 0.00 67 1015.9
20260906001018 64 241 3.5 7.0 0.00 0.00 0.00 67 1016.1
20260906000523 63 231 3.5 7.0 0.00 0.00 0.00 67 1016.2
20260906000059 63 196 3.5 7.8 0.00 0.00 0.00 71 1016.2
20260905235519 63 223 3.5 7.0 0.00 0.00 0.00 69 1016.3
20260905235019 63 228 5.2 7.0 0.00 0.00 0.00 67 1016.4
20260905234603 64 248 3.5 7.8 0.00 0.00 0.00 68 1016.3
20260905233130 64 243 4.3 7.8 0.00 0.00 0.00 66 1016.6
20260905232517 64 246 1.7 7.0 0.00 0.00 0.00 68 1016.4